(473102) = 2010 HV28 = 2015 HV170

Discovered at Mount Lemmon on 2008-09-24 by Mt. Lemmon Survey.

Orbit

Orbit type: Main Belt

Note: WebGL enabled browser required.

epoch2023-02-25.0
epoch JD2460000.5
perihelion date2019-06-17.89668
perihelion JD2458652.39668
argument of perihelion (°)152.90036
ascending node (°)63.71687
inclination (°)11.60808
eccentricity0.0725909
perihelion distance (AU)2.4261190
Tisserand w.r.t. Jupiter3.4
ΔV w.r.t. Earth (km/sec)10.4
semimajor axis (AU)2.6160182
mean anomaly (°)314.02620
mean daily motion (°/day)0.23293930
aphelion distance (AU)2.806
period (years)4.23
P-vector [x]-0.79428418
P-vector [y]-0.58749338
P-vector [z]-0.15480366
Q-vector [x]0.58014095
Q-vector [y]-0.65775677
Q-vector [z]-0.48040870
absolute magnitude17.29
phase slope0.15
uncertainty0
referenceMPO 745323
observations used202
oppositions9
arc length (days)5345
first opposition used2008
last opposition used2023
residual rms (arc-secs)0.84
perturbers coarse indicatorM-v
perturbers precise indicator003Ek
first observation date used2008-09-24.0
last observation date used2023-05-14.0
computer nameMPCLINUX
JD of orbit computation2457614.474320
perihelion JD uncertainty (days)1.6256E-04
argument of perihelion uncertainty (°)4.8255E-05
ascending node uncertainty (°)2.4972E-05
inclination uncertainty (°)7.1288E-06
eccentricity uncertainty 1.0576E-07
perihelion distance uncertainty (AU)2.3750E-07
Minimum Orbit Intersection Distances (in AU)
for orbit epoch: 2460000.5, reference: E2023-JF5
Mercury1.97567
Venus1.70427
Earth1.42244
Mars0.84923
Jupiter2.17912
Saturn6.31862
Uranus15.9889
Neptune27.0583

Observations

205 total observations over interval: 2008 09 24.37492 – 2023 05 14.190712
These data are available for download (format description).

Date (UT) J2000 RA J2000 Dec Magn Location Ref
2008 09 24.37492 02 38 47.65 +04 35 40.3 22.0 V G96 – Mt. Lemmon Survey MPS 723664
2008 09 24.38252 02 38 47.40 +04 35 38.9 21.6 V G96 – Mt. Lemmon Survey MPS 723664
2008 09 24.39017 02 38 47.18 +04 35 38.3 21.7 V G96 – Mt. Lemmon Survey MPS 723664
2008 09 24.39777 02 38 46.96 +04 35 37.1 21.1 V G96 – Mt. Lemmon Survey MPS 723664
2008 10 25.33362 02 14 14.85 +03 25 26.4 20.9 V G96 – Mt. Lemmon Survey MPS 723664
2008 10 25.33897 02 14 14.53 +03 25 25.4 21.0 V G96 – Mt. Lemmon Survey MPS 723664
2008 10 25.34439 02 14 14.20 +03 25 25.6 21.1 V G96 – Mt. Lemmon Survey MPS 723664
2008 10 25.34977 02 14 13.88 +03 25 24.4 20.9 V G96 – Mt. Lemmon Survey MPS 723664
2010 04 19.479025 08 47 15.64 +31 41 04.0   C51 – WISE MPS 325005
2010 04 19.47903 08 47 15.67 +31 41 04.1   C51 – WISE MPS 325005
2010 04 19.611330 08 47 22.14 +31 40 07.7   C51 – WISE MPS 325005
2010 04 19.743634 08 47 28.31 +31 39 08.7   C51 – WISE MPS 325005
2010 04 19.875939 08 47 34.586 +31 38 11.51   C51 – WISE MPS 904511
2010 04 19.942154 08 47 37.83 +31 37 41.1   C51 – WISE MPS 325005
2010 04 20.008243 08 47 40.97 +31 37 12.9   C51 – WISE MPS 325005
2010 04 20.074458 08 47 44.21 +31 36 44.1   C51 – WISE MPS 325005
2010 04 20.140546 08 47 47.45 +31 36 18.4   C51 – WISE MPS 325005
2010 04 20.206763 08 47 50.57 +31 35 46.9   C51 – WISE MPS 325005
2010 04 20.339067 08 47 57.07 +31 34 48.8   C51 – WISE MPS 325005
2010 04 20.47137 08 48 03.27 +31 33 48.3   C51 – WISE MPS 325005
2010 04 20.60368 08 48 09.95 +31 32 52.0   C51 – WISE MPS 325005
2013 12 31.38450 07 16 50.63 +34 10 47.9 20.3 V G96 – Mt. Lemmon Survey MPS 723664
2013 12 31.39194 07 16 50.19 +34 10 50.6 20.2 V G96 – Mt. Lemmon Survey MPS 723664
2013 12 31.39935 07 16 49.59 +34 10 53.8 20.5 V G96 – Mt. Lemmon Survey MPS 723664
2014 01 04.43514 07 12 18.815 +34 33 16.01 20.7 w F51 – Pan-STARRS 1, Haleakala MPS 723664
2014 01 04.44830 07 12 17.892 +34 33 20.04 20.6 w F51 – Pan-STARRS 1, Haleakala MPS 723664
2015 04 19.36752 15 31 49.92 -12 15 00.1 21.0 R V30 – Heaven on Earth Observatory, Mayhill MPS 723664
2015 04 19.39532 15 31 48.67 -12 15 03.9 21.8 R V30 – Heaven on Earth Observatory, Mayhill MPS 723664
2015 04 19.42395 15 31 47.33 -12 15 04.5 21.2 R V30 – Heaven on Earth Observatory, Mayhill MPS 723664
2015 04 20.28305 15 31 09.08 -12 15 53.7 20.5 V 691 – Steward Observatory, Kitt Peak-Spacewatch MPS 723664
2015 04 20.30190 15 31 08.23 -12 15 53.8 20.4 V 691 – Steward Observatory, Kitt Peak-Spacewatch MPS 723664
2015 04 20.32074 15 31 07.35 -12 15 55.8 20.4 V 691 – Steward Observatory, Kitt Peak-Spacewatch MPS 723664
2015 04 24.27905 15 27 56.64 -12 19 42.1 20.1 V 691 – Steward Observatory, Kitt Peak-Spacewatch MPS 723664
2015 04 24.29792 15 27 55.67 -12 19 44.1 20.5 V 691 – Steward Observatory, Kitt Peak-Spacewatch MPS 723664
2015 04 24.31676 15 27 54.62 -12 19 45.2 20.1 V 691 – Steward Observatory, Kitt Peak-Spacewatch MPS 723664
2015 04 25.50939 15 26 53.165 -12 20 53.95 20.8 w F51 – Pan-STARRS 1, Haleakala MPS 603555
2015 04 25.52154 15 26 52.501 -12 20 54.60 20.7 w F51 – Pan-STARRS 1, Haleakala MPS 603555
2015 04 25.53355 15 26 51.852 -12 20 55.37 20.6 w F51 – Pan-STARRS 1, Haleakala MPS 603555
2015 04 25.54563 15 26 51.194 -12 20 55.98 20.4 w F51 – Pan-STARRS 1, Haleakala MPS 603555
2015 04 28.28009 15 24 24.85 -12 23 41.2 20.4 V 691 – Steward Observatory, Kitt Peak-Spacewatch MPS 603555
2015 04 28.29894 15 24 23.74 -12 23 42.8 20.6 V 691 – Steward Observatory, Kitt Peak-Spacewatch MPS 603555
2015 04 28.31781 15 24 22.62 -12 23 43.9 20.1 V 691 – Steward Observatory, Kitt Peak-Spacewatch MPS 603555
2015 05 10.28452 15 12 35.42 -12 37 45.3 20.2 V G96 – Mt. Lemmon Survey MPS 723664
2015 05 10.28958 15 12 35.10 -12 37 45.3 20.4 V G96 – Mt. Lemmon Survey MPS 723664
2015 05 10.29464 15 12 34.79 -12 37 46.0 20.4 V G96 – Mt. Lemmon Survey MPS 723664
2015 05 10.29971 15 12 34.44 -12 37 47.0 19.9 V G96 – Mt. Lemmon Survey MPS 723664
2015 05 10.37030 15 12 29.98 -12 37 52.0 19.4 V I52 – Steward Observatory, Mt. Lemmon Station MPS 723664
2015 05 10.37414 15 12 29.76 -12 37 52.2 19.3 V I52 – Steward Observatory, Mt. Lemmon Station MPS 723664
2015 05 10.37799 15 12 29.45 -12 37 52.3 19.7 V I52 – Steward Observatory, Mt. Lemmon Station MPS 723664
2015 05 10.38184 15 12 29.21 -12 37 53.0 19.9 V I52 – Steward Observatory, Mt. Lemmon Station MPS 723664
2015 05 11.22325 15 11 37.76 -12 39 02.6 19.8 V I52 – Steward Observatory, Mt. Lemmon Station MPS 723664
2015 05 11.22596 15 11 37.60 -12 39 03.0 19.4 V I52 – Steward Observatory, Mt. Lemmon Station MPS 723664
2015 05 11.22866 15 11 37.42 -12 39 03.4 19.3 V I52 – Steward Observatory, Mt. Lemmon Station MPS 723664
2015 05 11.23138 15 11 37.24 -12 39 03.5 19.8 V I52 – Steward Observatory, Mt. Lemmon Station MPS 723664
2015 05 13.31009 15 09 29.12 -12 42 04.3 19.9 V G96 – Mt. Lemmon Survey MPS 723664
2015 05 13.31618 15 09 28.74 -12 42 04.8 20.1 V G96 – Mt. Lemmon Survey MPS 723664
2015 05 13.32228 15 09 28.35 -12 42 05.3 20.4 V G96 – Mt. Lemmon Survey MPS 723664
2015 05 13.32838 15 09 27.97 -12 42 06.1 20.1 V G96 – Mt. Lemmon Survey MPS 723664
2015 05 20.06678 15 02 40.85 -12 53 14.2 20.3 V W84 – Cerro Tololo-DECam MPS 790897
2015 05 20.06994 15 02 40.65 -12 53 14.6   W84 – Cerro Tololo-DECam MPS 790898
2015 05 20.07321 15 02 40.46 -12 53 14.9   W84 – Cerro Tololo-DECam MPS 790898
2015 05 20.07643 15 02 40.26 -12 53 15.3   W84 – Cerro Tololo-DECam MPS 790898
2015 05 20.07966 15 02 40.06 -12 53 15.7   W84 – Cerro Tololo-DECam MPS 790898
2015 05 22.15424 15 00 39.35 -12 57 15.1 20.5 V W84 – Cerro Tololo-DECam MPS 790898
2015 05 22.15744 15 00 39.16 -12 57 15.5   W84 – Cerro Tololo-DECam MPS 790898
2015 05 22.16066 15 00 38.96 -12 57 15.8   W84 – Cerro Tololo-DECam MPS 790898
2015 05 22.16389 15 00 38.78 -12 57 16.1   W84 – Cerro Tololo-DECam MPS 790898
2015 05 22.16709 15 00 38.58 -12 57 16.6   W84 – Cerro Tololo-DECam MPS 790898
2015 05 22.38418 15 00 26.194 -12 57 47.69 20.6 w F51 – Pan-STARRS 1, Haleakala MPS 608730
2015 05 22.39747 15 00 25.409 -12 57 49.34 20.4 w F51 – Pan-STARRS 1, Haleakala MPS 608730
2015 05 22.41070 15 00 24.618 -12 57 50.87 20.3 w F51 – Pan-STARRS 1, Haleakala MPS 608730
2015 05 22.42390 15 00 23.824 -12 57 52.45 20.2 w F51 – Pan-STARRS 1, Haleakala MPS 608730
2015 05 24.36433 14 58 34.750 -13 01 53.50 20.1 i F51 – Pan-STARRS 1, Haleakala MPS 608730
2015 05 24.37732 14 58 33.992 -13 01 55.11 20.3 i F51 – Pan-STARRS 1, Haleakala MPS 608730
2015 05 24.40333 14 58 32.485 -13 01 58.56 20.5 i F51 – Pan-STARRS 1, Haleakala MPS 608730
2015 06 23.98930 14 41 01.01 -14 43 28.7 21.4 V W84 – Cerro Tololo-DECam MPS 815016
2015 06 24.02517 14 41 00.61 -14 43 38.6   W84 – Cerro Tololo-DECam MPS 815016
2015 06 24.06000 14 41 00.22 -14 43 48.2   W84 – Cerro Tololo-DECam MPS 815016
2016 07 11.56556 00 06 06.638 -15 31 19.23 21.8 w F51 – Pan-STARRS 1, Haleakala MPS 719581
2016 07 11.57806 00 06 06.915 -15 31 21.43 22.0 w F51 – Pan-STARRS 1, Haleakala MPS 719581
2016 07 11.59056 00 06 07.170 -15 31 23.19 21.9 w F51 – Pan-STARRS 1, Haleakala MPS 719581
2016 07 11.60304 00 06 07.434 -15 31 25.35 21.8 w F51 – Pan-STARRS 1, Haleakala MPS 719581
2016 08 01.54919 00 08 51.931 -17 00 01.02 21.6 w F51 – Pan-STARRS 1, Haleakala MPS 722174
2016 08 01.55964 00 08 51.829 -17 00 04.54 21.9 w F51 – Pan-STARRS 1, Haleakala MPS 722174
2016 08 01.57009 00 08 51.705 -17 00 08.18 21.8 w F51 – Pan-STARRS 1, Haleakala MPS 722174
2016 08 01.58053 00 08 51.609 -17 00 11.59 21.8 w F51 – Pan-STARRS 1, Haleakala MPS 722174
2016 08 07.58827 00 07 33.933 -17 35 14.88 21.5 w F51 – Pan-STARRS 1, Haleakala MPS 723664
2016 08 07.59882 00 07 33.733 -17 35 18.54 21.6 w F51 – Pan-STARRS 1, Haleakala MPS 723664
2016 08 07.60937 00 07 33.526 -17 35 22.39 21.3 w F51 – Pan-STARRS 1, Haleakala MPS 723664
2016 09 25.38240 23 31 19.138 -21 44 52.33 21.1 w F51 – Pan-STARRS 1, Haleakala MPS 732294
2016 09 25.39337 23 31 18.535 -21 44 53.28 21.0 w F51 – Pan-STARRS 1, Haleakala MPS 732294
2016 09 25.40433 23 31 17.932 -21 44 54.24 21.1 w F51 – Pan-STARRS 1, Haleakala MPS 732294
2016 09 25.41530 23 31 17.334 -21 44 55.10 21.2 w F51 – Pan-STARRS 1, Haleakala MPS 732294
